[ hide orbit diagram ]
For accurate long-term ephemerides, please instead use our Horizons system.This orbit viewer was implemented using two-body methods, and hence should not be used for determining accurate long-term trajectories (over several years or decades) or planetary encounter circumstances.
Orbital Elements at Epoch 2459000.5 (2020-May-31.0) TDB
Reference: JPL 15 (heliocentric ecliptic J2000)
Element | Value | Uncertainty (1-sigma) | Units |
e | .1474065124345263 | 5.1601e-08 | |
a | 2.982905867090293 | 3.4426e-08 | au |
q | 2.543206116302026 | 1.6662e-07 | au |
i | 15.01674552347288 | 6.3269e-06 | deg |
node | 279.9273508943386 | 3.1657e-05 | deg |
peri | 314.9402225257075 | 4.6308e-05 | deg |
M | 317.994939760511 | 3.4759e-05 | deg |
tp | 2459220.061839414353 (2021-Jan-05.56183941) | 0.00018336 | TDB |
period | 1881.731908929848 5.15 | 3.2576e-05 8.919e-08 | d yr |
n | .1913131186709451 | 3.312e-09 | deg/d |
Q | 3.422605617878559 | 3.9501e-08 | au |
|
| | Orbit Determination Parameters
Additional Information
|
[ show covariance matrix ]
Physical Parameter Table
Parameter |
Symbol |
Value |
Units |
Sigma |
Reference |
Notes |
absolute magnitude |
H |
15.44 |
|
n/a |
E2021B55 |
|
|
277126 (2005 GO119) Discovered 2005-Apr-09 by Siding Spring Survey at Siding Spring |
Reference: 20110517/Numbers.arc | Last Updated: 2011-05-20 |
|
[ show close-approach data ]
|